| time (UTC) | temp F | wind direction | speed knots | gust knots | rain 1hr in | rain 24hr in | rain mn in | humidity % | barometer mb |
| 20260505102118 | 52 | 15 | 0.9 | 1.7 | 0.00 | 0.00 | 0.00 | 69 | 1016.4 |
| 20260505101017 | 53 | 29 | 0.0 | 1.7 | 0.00 | 0.00 | 0.00 | 68 | 1016.3 |
| 20260505100017 | 53 | 7 | 0.0 | 0.9 | 0.00 | 0.00 | 0.00 | 67 | 1016.3 |
| 20260505095039 | 54 | 25 | 0.0 | 1.7 | 0.00 | 0.00 | 0.00 | 65 | 1016.2 |
| 20260505094017 | 54 | 341 | 0.0 | 0.9 | 0.00 | 0.00 | 0.00 | 63 | 1016.2 |
| 20260505093018 | 54 | 274 | 0.0 | 0.9 | 0.00 | 0.00 | 0.00 | 62 | 1016.2 |
| 20260505092039 | 55 | 28 | 0.0 | 0.0 | 0.00 | 0.00 | 0.00 | 61 | 1016.3 |
| 20260505091019 | 55 | 352 | 0.0 | 0.9 | 0.00 | 0.00 | 0.00 | 60 | 1016.0 |
| 20260505090018 | 56 | 14 | 0.0 | 0.9 | 0.00 | 0.00 | 0.00 | 59 | 1015.9 |
| 20260505085018 | 56 | 11 | 0.0 | 1.7 | 0.00 | 0.00 | 0.00 | 58 | 1015.9 |
| 20260505084019 | 56 | 3 | 1.7 | 2.6 | 0.00 | 0.00 | 0.00 | 57 | 1015.7 |
| 20260505083022 | 57 | 19 | 1.7 | 6.1 | 0.00 | 0.00 | 0.00 | 56 | 1015.5 |
| 20260505082015 | 57 | 28 | 2.6 | 7.0 | 0.00 | 0.00 | 0.00 | 56 | 1015.4 |
| 20260505081016 | 57 | 26 | 1.7 | 7.8 | 0.00 | 0.00 | 0.00 | 56 | 1015.4 |
| 20260505080016 | 57 | 19 | 0.9 | 4.3 | 0.00 | 0.00 | 0.00 | 56 | 1015.5 |
| 20260505075019 | 57 | 19 | 1.7 | 4.3 | 0.00 | 0.00 | 0.00 | 57 | 1015.6 |
| 20260505074039 | 57 | 29 | 0.9 | 2.6 | 0.00 | 0.00 | 0.00 | 58 | 1015.7 |
| 20260505073020 | 57 | 43 | 0.9 | 3.5 | 0.00 | 0.00 | 0.00 | 58 | 1015.7 |
| 20260505072016 | 56 | 18 | 0.9 | 5.2 | 0.00 | 0.00 | 0.00 | 59 | 1015.8 |
| 20260505071016 | 56 | 17 | 1.7 | 5.2 | 0.00 | 0.00 | 0.00 | 60 | 1015.8 |
| 20260505070019 | 56 | 12 | 0.9 | 3.5 | 0.00 | 0.00 | 0.00 | 60 | 1015.9 |
| 20260505065016 | 56 | 20 | 1.7 | 5.2 | 0.00 | 0.00 | 0.00 | 60 | 1015.9 |
| 20260505064035 | 56 | 26 | 1.7 | 3.5 | 0.00 | 0.00 | 0.00 | 61 | 1016.0 |
| 20260505063017 | 56 | 19 | 1.7 | 4.3 | 0.00 | 0.00 | 0.00 | 61 | 1016.0 |
| 20260505062020 | 56 | 17 | 0.9 | 1.7 | 0.00 | 0.00 | 0.00 | 61 | 1016.1 |
| 20260505061120 | 57 | 20 | 1.7 | 3.5 | 0.00 | 0.00 | 0.00 | 62 | 1016.1 |
| 20260505060020 | 57 | 14 | 0.9 | 2.6 | 0.00 | 0.00 | 0.00 | 61 | 1016.2 |
| 20260505055018 | 57 | 20 | 2.6 | 6.1 | 0.00 | 0.00 | 0.00 | 61 | 1016.2 |
| 20260505054017 | 58 | 24 | 2.6 | 6.1 | 0.00 | 0.00 | 0.00 | 60 | 1016.2 |
| 20260505053017 | 58 | 29 | 1.7 | 7.0 | 0.00 | 0.00 | 0.00 | 60 | 1016.2 |
| 20260505052018 | 58 | 16 | 0.9 | 4.3 | 0.00 | 0.00 | 0.00 | 60 | 1016.3 |
| 20260505051038 | 58 | 17 | 1.7 | 6.1 | 0.00 | 0.00 | 0.00 | 60 | 1016.3 |
| 20260505041021 | 58 | 328 | 0.0 | 0.9 | 0.00 | 0.00 | 0.00 | 59 | 1016.7 |
| 20260505040020 | 58 | 35 | 0.9 | 4.3 | 0.00 | 0.00 | 0.00 | 59 | 1016.7 |
| 20260505035021 | 58 | 10 | 0.9 | 3.5 | 0.00 | 0.00 | 0.00 | 58 | 1016.7 |
| 20260505034016 | 59 | 356 | 0.9 | 1.7 | 0.00 | 0.00 | 0.00 | 58 | 1016.8 |
| 20260505033016 | 59 | 340 | 0.9 | 1.7 | 0.00 | 0.00 | 0.00 | 57 | 1016.9 |
| 20260505032017 | 60 | 355 | 0.9 | 1.7 | 0.00 | 0.00 | 0.00 | 56 | 1016.8 |
| 20260505031016 | 60 | 350 | 0.9 | 1.7 | 0.00 | 0.00 | 0.00 | 55 | 1016.8 |
| 20260505030017 | 60 | 43 | 0.0 | 1.7 | 0.00 | 0.00 | 0.00 | 55 | 1016.8 |
| 20260505025020 | 60 | 352 | 0.9 | 2.6 | 0.00 | 0.00 | 0.00 | 54 | 1016.8 |
| 20260505024017 | 61 | 8 | 0.9 | 1.7 | 0.00 | 0.00 | 0.00 | 54 | 1016.8 |
| 20260505023018 | 61 | 359 | 0.9 | 2.6 | 0.00 | 0.00 | 0.00 | 53 | 1016.7 |
| 20260505022017 | 61 | 14 | 0.9 | 2.6 | 0.00 | 0.00 | 0.00 | 53 | 1016.6 |
| 20260505021037 | 61 | 1 | 0.9 | 1.7 | 0.00 | 0.00 | 0.00 | 54 | 1016.6 |
| 20260505020019 | 61 | 18 | 0.9 | 2.6 | 0.00 | 0.00 | 0.00 | 53 | 1016.6 |
| 20260505015017 | 61 | 10 | 0.9 | 2.6 | 0.00 | 0.00 | 0.00 | 53 | 1016.5 |
| 20260505014017 | 61 | 6 | 0.9 | 3.5 | 0.00 | 0.00 | 0.00 | 53 | 1016.4 |
| 20260505013017 | 61 | 9 | 0.9 | 1.7 | 0.00 | 0.00 | 0.00 | 53 | 1016.4 |
| 20260505012018 | 61 | 12 | 0.9 | 1.7 | 0.00 | 0.00 | 0.00 | 52 | 1016.3 |
| 20260505011018 | 61 | 9 | 0.9 | 2.6 | 0.00 | 0.00 | 0.00 | 52 | 1016.2 |
| 20260505010018 | 61 | 4 | 0.9 | 2.6 | 0.00 | 0.00 | 0.00 | 52 | 1016.1 |
| 20260505005018 | 61 | 7 | 0.9 | 2.6 | 0.00 | 0.00 | 0.00 | 51 | 1016.1 |
| 20260505004039 | 61 | 357 | 0.9 | 2.6 | 0.00 | 0.00 | 0.00 | 51 | 1016.1 |
| 20260505003018 | 61 | 4 | 0.9 | 2.6 | 0.00 | 0.00 | 0.00 | 50 | 1016.0 |
| 20260505002016 | 62 | 1 | 0.9 | 2.6 | 0.00 | 0.00 | 0.00 | 50 | 1016.0 |
| 20260505001017 | 62 | 6 | 0.9 | 3.5 | 0.00 | 0.00 | 0.00 | 49 | 1016.0 |
| 20260505000037 | 63 | 14 | 0.9 | 3.5 | 0.00 | 0.00 | 0.00 | 47 | 1015.9 |
| 20260504235016 | 63 | 20 | 0.9 | 6.1 | 0.00 | 0.00 | 0.00 | 46 | 1015.8 |
| 20260504234036 | 64 | 31 | 2.6 | 5.2 | 0.00 | 0.00 | 0.00 | 44 | 1015.7 |
| 20260504233016 | 64 | 28 | 1.7 | 7.8 | 0.00 | 0.00 | 0.00 | 44 | 1015.7 |
| 20260504232016 | 65 | 30 | 1.7 | 5.2 | 0.00 | 0.00 | 0.00 | 45 | 1015.7 |
| 20260504231017 | 65 | 323 | 1.7 | 3.5 | 0.00 | 0.00 | 0.00 | 45 | 1015.6 |
| 20260504230018 | 66 | 10 | 0.9 | 3.5 | 0.00 | 0.00 | 0.00 | 45 | 1015.5 |
| 20260504225017 | 66 | 350 | 0.9 | 2.6 | 0.00 | 0.00 | 0.00 | 44 | 1015.5 |
| 20260504224017 | 66 | 358 | 0.9 | 2.6 | 0.00 | 0.00 | 0.00 | 43 | 1015.6 |
| 20260504223017 | 67 | 16 | 0.9 | 2.6 | 0.00 | 0.00 | 0.00 | 43 | 1015.6 |
| 20260504222018 | 67 | 21 | 0.9 | 1.7 | 0.00 | 0.00 | 0.00 | 43 | 1015.7 |
| 20260504221019 | 67 | 97 | 0.9 | 3.5 | 0.00 | 0.00 | 0.00 | 43 | 1015.7 |
| 20260504220019 | 68 | 35 | 0.9 | 2.6 | 0.00 | 0.00 | 0.00 | 42 | 1015.7 |
| 20260504215017 | 68 | 51 | 0.9 | 2.6 | 0.00 | 0.00 | 0.00 | 41 | 1015.6 |
| 20260504214040 | 68 | 74 | 1.7 | 4.3 | 0.00 | 0.00 | 0.00 | 41 | 1015.5 |
| 20260504213018 | 69 | 16 | 1.7 | 3.5 | 0.00 | 0.00 | 0.00 | 41 | 1015.6 |
| 20260504212018 | 69 | 16 | 0.9 | 3.5 | 0.00 | 0.00 | 0.00 | 41 | 1015.6 |
| 20260504211018 | 69 | 104 | 0.9 | 3.5 | 0.00 | 0.00 | 0.00 | 40 | 1015.6 |
| 20260504210018 | 70 | 36 | 0.9 | 4.3 | 0.00 | 0.00 | 0.00 | 40 | 1015.8 |
| 20260504205018 | 70 | 38 | 0.9 | 5.2 | 0.00 | 0.00 | 0.00 | 39 | 1015.9 |
| 20260504204016 | 70 | 101 | 1.7 | 4.3 | 0.00 | 0.00 | 0.00 | 38 | 1015.9 |
| 20260504203057 | 70 | 81 | 1.7 | 6.1 | 0.00 | 0.00 | 0.00 | 38 | 1015.5 |
| 20260504202016 | 70 | 146 | 1.7 | 4.3 | 0.00 | 0.00 | 0.00 | 37 | 1015.6 |
| 20260504201016 | 70 | 96 | 0.9 | 4.3 | 0.00 | 0.00 | 0.00 | 38 | 1015.6 |
| 20260504200017 | 70 | 14 | 0.9 | 3.5 | 0.00 | 0.00 | 0.00 | 36 | 1015.8 |
| 20260504195017 | 71 | 126 | 0.9 | 3.5 | 0.00 | 0.00 | 0.00 | 32 | 1016.1 |
| 20260504194016 | 72 | 147 | 0.9 | 3.5 | 0.00 | 0.00 | 0.00 | 33 | 1015.9 |
| 20260504193018 | 71 | 99 | 1.7 | 5.2 | 0.00 | 0.00 | 0.00 | 34 | 1016.0 |
| 20260504192017 | 71 | 111 | 1.7 | 6.1 | 0.00 | 0.00 | 0.00 | 34 | 1016.2 |
| 20260504191017 | 71 | 69 | 0.9 | 2.6 | 0.00 | 0.00 | 0.00 | 35 | 1016.2 |
| 20260504190017 | 71 | 40 | 1.7 | 5.2 | 0.00 | 0.00 | 0.00 | 36 | 1016.3 |
| 20260504185017 | 71 | 5 | 0.9 | 3.5 | 0.00 | 0.00 | 0.00 | 37 | 1016.4 |
| 20260504184019 | 71 | 130 | 2.6 | 6.1 | 0.00 | 0.00 | 0.00 | 38 | 1016.5 |
| 20260504183017 | 71 | 120 | 2.6 | 5.2 | 0.00 | 0.00 | 0.00 | 37 | 1016.6 |
| 20260504182018 | 71 | 122 | 0.9 | 3.5 | 0.00 | 0.00 | 0.00 | 38 | 1016.5 |
| 20260504181018 | 71 | 117 | 1.7 | 5.2 | 0.00 | 0.00 | 0.00 | 39 | 1016.7 |
| 20260504180018 | 71 | 139 | 0.9 | 2.6 | 0.00 | 0.00 | 0.00 | 39 | 1016.7 |
| 20260504175019 | 70 | 123 | 1.7 | 3.5 | 0.00 | 0.00 | 0.00 | 39 | 1016.9 |
| 20260504174019 | 71 | 19 | 0.9 | 3.5 | 0.00 | 0.00 | 0.00 | 37 | 1016.9 |
| 20260504173018 | 71 | 117 | 1.7 | 5.2 | 0.00 | 0.00 | 0.00 | 39 | 1017.0 |
| 20260504172018 | 69 | 70 | 0.9 | 2.6 | 0.00 | 0.00 | 0.00 | 39 | 1017.0 |
| 20260504171016 | 70 | 142 | 1.7 | 7.0 | 0.00 | 0.00 | 0.00 | 38 | 1017.0 |
| 20260504151017 | 66 | 104 | 0.9 | 2.6 | 0.00 | 0.00 | 0.00 | 38 | 1018.0 |
| 20260504141018 | 64 | 120 | 0.9 | 4.3 | 0.00 | 0.00 | 0.00 | 40 | 1017.6 |